Miscellaneous Local Product
Issued by NWS Hastings, NE

Home | Current Version | Previous Version | Graphics & Text | Print | Product List | Glossary On
Versions: 1 2 3 4 5 6 7 8 9 10 11 12 13 14 15 16 17 18 19 20 21 22 23 24 25 26 27 28 29 30 31 32 33 34 35 36 37 38 39 40 41 42 43 44 45 46 47 48 49 50
000
AXUS43 KGID 270802
MISGRI

GID CWA HOURLY WEATHER ROUNDUP
NATIONAL WEATHER SERVICE HASTINGS NE
300 AM CDT WED MAY 27 2015

NOTE: "FAIR" INDICATES FEW OR NO CLOUDS BELOW 12,000 FEET WITH NO
SIGNIFICANT WEATHER AND/OR OBSTRUCTIONS TO VISIBILITY.

...SOUTH CENTRAL NEBRASKA...

CITY           SKY/WX    TMP DP  RH WIND       PRES   REMARKS
GRAND ISLAND   CLEAR     53  47  79 W8        30.02R
HASTINGS       CLEAR     54  47  77 W5        30.02S
KEARNEY        CLEAR     55  46  71 W5        30.03S
ORD            CLEAR     52  47  83 NW3       30.01R
YORK           CLEAR     54  50  87 W8        30.00R
AURORA         CLEAR     51  49  92 W6        30.00S
LEXINGTON      PTCLDY    49  46  92 CALM      30.04S
HOLDREGE       PTCLDY    50  46  86 CALM      30.04S
HEBRON         CLEAR     52  49  89 CALM      30.01R

...NEBRASKA PANHANDLE...

CITY           SKY/WX    TMP DP  RH WIND       PRES   REMARKS
CHADRON        CLOUDY    57  52  83 SW8       29.99F
ALLIANCE       CLOUDY    53  49  86 S7        30.04R
SCOTTSBLUFF    CLOUDY    56  53  90 E7        30.03F
SIDNEY         CLOUDY    52  49  89 S9        30.06S

...WESTERN AND NORTH CENTRAL NEBRASKA...

CITY           SKY/WX    TMP DP  RH WIND       PRES   REMARKS
VALENTINE      CLEAR     48  45  89 SW6       30.02R
AINSWORTH      CLEAR     53  48  81 SW5       30.02R
ONEILL         CLEAR     55  50  85 CALM      29.98S
BROKEN BOW     PTCLDY    52  47  83 CALM      30.03R
IMPERIAL       PTCLDY    52  48  86 E5        30.06F
NORTH PLATTE   MOCLDY    49  46  90 CALM      30.06R
MCCOOK         PTCLDY    54  47  77 S5        30.05S

...EASTERN NEBRASKA...

CITY           SKY/WX    TMP DP  RH WIND       PRES   REMARKS
NORFOLK        CLEAR     54  50  86 W8        29.96R
SO SIOUX CITY  CLEAR     54  51  90 CALM      29.93R
TEKAMAH        CLEAR     55  52  89 CALM      29.94R
COLUMBUS         N/A    N/A N/A N/A MISG        N/A
ALBION         CLEAR     51  47  86 CALM      29.99R
OMAHA EPPLEY   CLEAR     56  53  90 CALM      29.94S
OFFUTT AFB     CLEAR     55  53  94 SW5       29.94S
MILLARD        FOG       54  53  96 CALM      29.94S VSB 3/4
LINCOLN        CLEAR     57  51  80 CALM      29.99R
NEBRASKA CITY  CLEAR     58  52  81 W9        29.97R
BEATRICE       CLEAR     54  51  89 SW3       30.00R
FALLS CITY     CLEAR     58  54  86 W7        29.97R

...NORTHERN KANSAS...

CITY           SKY/WX    TMP DP  RH WIND       PRES   REMARKS
GOODLAND       CLOUDY    53  50  89 S8        30.08R
HILL CITY      CLEAR     50  48  93 CALM      30.04F
NORTON         SUNNY     52  45  76 W3        30.04S
PHILLIPSBURG   CLEAR     54  54 100 NW5       30.05R
SMITH CENTER   CLEAR     48  48 100 CALM      30.05R
HAYS           CLEAR     54  46  76 CALM      30.04S
RUSSELL        CLEAR     57  52  83 CALM      30.03R
CONCORDIA      CLEAR     56  52  86 W7        30.03R
SALINA         MOCLDY    62  56  80 W3        30.02S
TOPEKA         PTCLDY    60  59  96 W5        29.99R



USA.gov is the U.S. government's official web portal to all federal, state and local government web resources and services.